Find Starlink 36432

NORAD ID: 67342 Int'l Des: 2026-003 Owner: SPXS Country: US Constellation: starlink operational
LEOCIRCULAR

Live Position

Loading 3D Globe...

About Starlink 36432

Description loading...

Upcoming Passes

Passes for default location (London). Set your location on the main map for personalized predictions.

Altitude History

Loading altitude history...

Two-Line Element Set

1 67342U 26003J 26104.49377015 .00007798 00000-0 29258-3 0 9992
2 67342 43.0029 24.5199 0001385 273.4975 86.5718 15.27583353 14301
Epoch: Apr 14, 2026 • Age: 20 hours

Current Status

Altitude 482.8 km
Velocity 7.63 km/s
Sub-Earth Point -1.11°S, 51.38°E
Launch Date Jan 9, 2026
Age 0.2 years
Type internet

Technical Details

Classification Payload
Mass 575.00 kg
Dry Mass 530.00 kg
Total Mass 575.00 kg
Length 0.30 m
Diameter 4.10 m
Span 29.00 m
Shape Box + pan
Manufacturer SPXS
Bus Type Starlink V2MO
Phase Status In Orbit
Owner/State SPXS/US

Most Searched